Skip Page Navigation
NASA JPL Caltech
NASA Logo - Jet Propulsion Laboratory + View the NASA Portal
+ Center for Near-Earth Object Studies
JPL Home Earth Solar System Stars & Galaxies Technology
JPL Solar System Dynamics
BODIES ORBITS EPHEMERIDES TOOLS PHYSICAL DATA DISCOVERY FAQ SITE MAP
JPL Small-Body Database Browser
Search: [ help ]  
5025 (1986 TS6)
Classification: Jupiter Trojan          SPK-ID: 2005025
Ephemeris | Orbit Diagram | Orbital Elements | Mission Design | Physical Parameters | Discovery Circumstances ]

[ show orbit diagram ]
Orbital Elements at Epoch 2459000.5 (2020-May-31.0) TDB
Reference: JPL 59 (heliocentric ecliptic J2000)
 Element Value Uncertainty (1-sigma)   Units 
e .07586070030205649 4.784e-08  
a 5.195825608093307 9.7875e-08 au
q 4.80166663881599 3.0973e-07 au
i 11.02774445341449 6.2074e-06 deg
node 347.7613002489175 2.3659e-05 deg
peri 73.32021446874165 5.2258e-05 deg
M 288.0738481403113 5.0005e-05 deg
tp 2459864.800174725395
(2022-Oct-12.30017473)
0.00061073 TDB
period 4325.937852314414
11.84
0.00012223
3.346e-07
d
yr
n .08321894865119177 2.3514e-09 deg/d
Q 5.589984577370624 1.053e-07 au
  Orbit Determination Parameters
   # obs. used (total)      1488  
   data-arc span      12356 days (33.83 yr)  
   first obs. used      1986-10-05  
   last obs. used      2020-08-03  
   planetary ephem.      DE431  
   SB-pert. ephem.      SB431-N16  
   condition code      0  
   norm. resid. RMS      .48454  
   source      ORB  
   producer      Otto Matic  
   solution date      2020-Aug-24 23:23:00  

Additional Information
 Earth MOID = 3.83465 au 
 Jupiter MOID = .103246 au 
 T_jup = 2.957 
[ show covariance matrix ]

Ephemeris | Orbit Diagram | Orbital Elements | Mission Design | Physical Parameters | Discovery Circumstances ]

Physical Parameter Table
Parameter Symbol Value Units Sigma Reference Notes
absolute magnitude H 10.4   n/a MPO492811  
diameter diameter 39.843 km 3.637 urn:nasa:pds:neowise_diameters_albedos::2.0[jupiter_trojans] (http://adsabs.harvard.edu/abs/2012ApJ...759...49G)  
rotation period rot_per 250. h n/a LCDB (Rev. 2019-August); Warner et al., 2009 Result based on fragmentary lightcurve(s), may be completely wrong.
Published Reference List:
[Mottola, S.; Di Martino, M.; Erikson, A.; Gonano-Beurer, M.; et al. (2011) Astron. J. 141, A170.]
geometric albedo albedo 0.084   0.009 urn:nasa:pds:neowise_diameters_albedos::2.0[jupiter_trojans] (http://adsabs.harvard.edu/abs/2012ApJ...759...49G)  

5025 (1986 TS6)          Discovered 1986-Oct-05 by Antal, M. at Piwnice
Reference: DISCOVERY.DBLast Updated: 2003-08-29

Alternate Designations
 1986 TS6 = 1989 BX 
Ephemeris | Orbit Diagram | Orbital Elements | Mission Design | Physical Parameters | Discovery Circumstances ]
ABOUT SSD CREDITS/AWARDS PRIVACY/COPYRIGHT GLOSSARY LINKS
FirstGov 2020-Oct-24 12:56 UT
(server date/time)  
NASA Home Page
Site Manager:   Ryan S. Park
Webmaster  Alan B. Chamberlin